| time (UTC) | temp F | wind direction | speed knots | gust knots | rain 1hr in | rain 24hr in | rain mn in | humidity % | barometer mb |
| 20260510234550 | 76 | 0 | 0.0 | 2.6 | 0.00 | 0.00 | 0.00 | 39 | 1015.2 |
| 20260510233101 | 77 | 0 | 0.0 | 4.3 | 0.00 | 0.00 | 0.00 | 38 | 1015.0 |
| 20260510231549 | 78 | 151 | 0.9 | 2.6 | 0.00 | 0.00 | 0.00 | 36 | 1014.9 |
| 20260510230052 | 79 | 161 | 1.7 | 7.8 | 0.00 | 0.00 | 0.00 | 35 | 1014.9 |
| 20260510224550 | 79 | 143 | 0.0 | 7.0 | 0.00 | 0.00 | 0.00 | 35 | 1014.9 |
| 20260510223054 | 80 | 182 | 1.7 | 6.1 | 0.00 | 0.00 | 0.00 | 34 | 1014.8 |
| 20260510221554 | 81 | 88 | 3.5 | 7.8 | 0.00 | 0.00 | 0.00 | 31 | 1014.6 |
| 20260510214555 | 82 | 228 | 2.6 | 7.8 | 0.00 | 0.00 | 0.00 | 32 | 1014.6 |
| 20260510213058 | 82 | 202 | 0.0 | 7.0 | 0.00 | 0.00 | 0.00 | 30 | 1014.5 |
| 20260510211556 | 83 | 118 | 2.6 | 7.8 | 0.00 | 0.00 | 0.00 | 28 | 1014.6 |
| 20260510210054 | 84 | 149 | 1.7 | 7.8 | 0.00 | 0.00 | 0.00 | 27 | 1014.5 |
| 20260510204557 | 84 | 0 | 1.7 | 7.8 | 0.00 | 0.00 | 0.00 | 26 | 1014.7 |
| 20260510203048 | 84 | 136 | 4.3 | 7.0 | 0.00 | 0.00 | 0.00 | 25 | 1014.9 |
| 20260510201604 | 85 | 132 | 0.0 | 4.3 | 0.00 | 0.00 | 0.00 | 26 | 1014.9 |
| 20260510200046 | 84 | 291 | 0.9 | 5.2 | 0.00 | 0.00 | 0.00 | 29 | 1015.1 |
| 20260510194555 | 83 | 177 | 1.7 | 8.7 | 0.00 | 0.00 | 0.00 | 30 | 1015.3 |
| 20260510193053 | 84 | 144 | 0.0 | 7.0 | 0.00 | 0.00 | 0.00 | 28 | 1015.3 |
| 20260510191558 | 84 | 150 | 2.6 | 10.4 | 0.00 | 0.00 | 0.00 | 29 | 1015.4 |
| 20260510190050 | 84 | 143 | 0.9 | 5.2 | 0.00 | 0.00 | 0.00 | 29 | 1015.5 |
| 20260510184549 | 84 | 92 | 0.9 | 8.7 | 0.00 | 0.00 | 0.00 | 27 | 1015.6 |
| 20260510183047 | 84 | 134 | 2.6 | 7.0 | 0.00 | 0.00 | 0.00 | 29 | 1015.7 |
| 20260510181605 | 84 | 115 | 1.7 | 7.0 | 0.00 | 0.00 | 0.00 | 27 | 1015.8 |
| 20260510180105 | 84 | 143 | 0.0 | 5.2 | 0.00 | 0.00 | 0.00 | 30 | 1015.9 |
| 20260510174548 | 84 | 75 | 1.7 | 7.0 | 0.00 | 0.00 | 0.00 | 28 | 1015.9 |
| 20260510173049 | 83 | 139 | 3.5 | 8.7 | 0.00 | 0.00 | 0.00 | 27 | 1016.1 |
| 20260510171550 | 84 | 105 | 2.6 | 5.2 | 0.00 | 0.00 | 0.00 | 26 | 1016.3 |
| 20260510170046 | 85 | 176 | 0.9 | 4.3 | 0.00 | 0.00 | 0.00 | 28 | 1016.3 |
| 20260510164547 | 84 | 261 | 0.0 | 2.6 | 0.00 | 0.00 | 0.00 | 27 | 1016.3 |
| 20260510163048 | 85 | 0 | 0.0 | 3.5 | 0.00 | 0.00 | 0.00 | 29 | 1016.4 |
| 20260510161547 | 83 | 352 | 0.0 | 2.6 | 0.00 | 0.00 | 0.00 | 28 | 1016.5 |
| 20260510160049 | 83 | 114 | 0.0 | 1.7 | 0.00 | 0.00 | 0.00 | 33 | 1016.7 |
| 20260510154554 | 82 | 0 | 0.9 | 2.6 | 0.00 | 0.00 | 0.00 | 30 | 1016.7 |
| 20260510153052 | 80 | 0 | 0.0 | 3.5 | 0.00 | 0.00 | 0.00 | 35 | 1016.8 |
| 20260510151555 | 81 | 193 | 0.0 | 2.6 | 0.00 | 0.00 | 0.00 | 35 | 1016.8 |
| 20260510150120 | 80 | 0 | 0.0 | 2.6 | 0.00 | 0.00 | 0.00 | 41 | 1016.9 |
| 20260510144549 | 80 | 113 | 0.0 | 0.9 | 0.00 | 0.00 | 0.00 | 45 | 1016.8 |
| 20260510143050 | 77 | 166 | 0.0 | 0.9 | 0.00 | 0.00 | 0.00 | 46 | 1016.7 |
| 20260510141544 | 75 | 0 | 0.0 | 0.9 | 0.00 | 0.00 | 0.00 | 48 | 1016.9 |
| 20260510140054 | 75 | 0 | 0.0 | 1.7 | 0.00 | 0.00 | 0.00 | 58 | 1016.9 |
| 20260510134551 | 75 | 0 | 0.0 | 0.9 | 0.00 | 0.00 | 0.00 | 60 | 1017.0 |
| 20260510133050 | 74 | 0 | 0.0 | 0.9 | 0.00 | 0.00 | 0.00 | 65 | 1016.8 |
| 20260510131551 | 73 | 0 | 0.0 | 0.9 | 0.00 | 0.00 | 0.00 | 65 | 1016.8 |
| 20260510130048 | 73 | 0 | 0.0 | 0.0 | 0.00 | 0.00 | 0.00 | 69 | 1016.6 |
| 20260510124550 | 68 | 0 | 0.0 | 0.0 | 0.00 | 0.00 | 0.00 | 80 | 1016.5 |
| 20260510123046 | 63 | 0 | 0.0 | 0.0 | 0.00 | 0.00 | 0.00 | 96 | 1016.5 |
| 20260510121543 | 58 | 0 | 0.0 | 0.0 | 0.00 | 0.00 | 0.00 | 98 | 1016.4 |
| 20260510120044 | 52 | 0 | 0.0 | 0.0 | 0.00 | 0.00 | 0.00 | 98 | 1016.1 |
| 20260510114553 | 51 | 0 | 0.0 | 0.0 | 0.00 | 0.00 | 0.00 | 97 | 1015.9 |
| 20260510113046 | 51 | 0 | 0.0 | 0.0 | 0.00 | 0.00 | 0.00 | 97 | 1015.4 |
| 20260510111558 | 50 | 0 | 0.0 | 0.0 | 0.00 | 0.00 | 0.00 | 97 | 1015.1 |
| 20260510110047 | 50 | 0 | 0.0 | 0.0 | 0.00 | 0.00 | 0.00 | 96 | 1014.9 |
| 20260510104551 | 50 | 0 | 0.0 | 0.0 | 0.00 | 0.00 | 0.00 | 97 | 1014.6 |
| 20260510103059 | 50 | 0 | 0.0 | 0.0 | 0.00 | 0.00 | 0.00 | 96 | 1014.3 |
| 20260510101553 | 51 | 0 | 0.0 | 0.0 | 0.00 | 0.00 | 0.00 | 96 | 1014.1 |
| 20260510100052 | 51 | 0 | 0.0 | 0.0 | 0.00 | 0.00 | 0.00 | 96 | 1014.0 |
| 20260510094602 | 51 | 0 | 0.0 | 0.0 | 0.00 | 0.00 | 0.00 | 96 | 1013.8 |
| 20260510093104 | 52 | 0 | 0.0 | 0.0 | 0.00 | 0.00 | 0.00 | 96 | 1013.8 |
| 20260510091553 | 52 | 0 | 0.0 | 0.0 | 0.00 | 0.00 | 0.00 | 96 | 1013.7 |
| 20260510090049 | 52 | 0 | 0.0 | 0.0 | 0.00 | 0.00 | 0.00 | 96 | 1013.6 |
| 20260510084550 | 53 | 0 | 0.0 | 0.0 | 0.00 | 0.00 | 0.00 | 96 | 1013.5 |
| 20260510083058 | 53 | 0 | 0.0 | 0.0 | 0.00 | 0.00 | 0.00 | 96 | 1013.4 |
| 20260510081549 | 54 | 0 | 0.0 | 0.0 | 0.00 | 0.00 | 0.00 | 96 | 1013.3 |
| 20260510080048 | 54 | 0 | 0.0 | 0.0 | 0.00 | 0.00 | 0.00 | 95 | 1013.0 |
| 20260510074549 | 55 | 0 | 0.0 | 0.0 | 0.00 | 0.00 | 0.00 | 95 | 1012.8 |
| 20260510073055 | 55 | 0 | 0.0 | 0.0 | 0.00 | 0.00 | 0.00 | 95 | 1012.8 |
| 20260510071549 | 55 | 0 | 0.0 | 0.0 | 0.00 | 0.00 | 0.00 | 95 | 1012.8 |
| 20260510070050 | 56 | 0 | 0.0 | 0.0 | 0.00 | 0.00 | 0.00 | 95 | 1012.6 |
| 20260510064549 | 56 | 0 | 0.0 | 0.0 | 0.00 | 0.00 | 0.00 | 95 | 1012.8 |
| 20260510063045 | 57 | 0 | 0.0 | 0.0 | 0.00 | 0.00 | 0.00 | 95 | 1012.5 |
| 20260510061544 | 57 | 0 | 0.0 | 0.0 | 0.00 | 0.00 | 0.00 | 95 | 1012.9 |
| 20260510060049 | 57 | 0 | 0.0 | 0.0 | 0.00 | 0.00 | 0.00 | 95 | 1013.0 |
| 20260510054551 | 58 | 0 | 0.0 | 0.0 | 0.00 | 0.00 | 0.00 | 94 | 1013.0 |
| 20260510053049 | 58 | 0 | 0.0 | 0.0 | 0.00 | 0.00 | 0.00 | 94 | 1012.9 |
| 20260510051600 | 58 | 0 | 0.0 | 0.0 | 0.00 | 0.00 | 0.00 | 95 | 1012.9 |
| 20260510050046 | 58 | 0 | 0.0 | 0.0 | 0.00 | 0.00 | 0.00 | 94 | 1013.3 |
| 20260510044550 | 59 | 0 | 0.0 | 0.0 | 0.00 | 0.00 | 0.00 | 94 | 1013.1 |
| 20260510043048 | 59 | 0 | 0.0 | 0.0 | 0.00 | 0.00 | 0.00 | 93 | 1013.1 |
| 20260510041551 | 59 | 0 | 0.0 | 0.0 | 0.00 | 0.00 | 0.00 | 93 | 1012.9 |
| 20260510040053 | 60 | 0 | 0.0 | 0.0 | 0.00 | 0.00 | 0.00 | 92 | 1013.1 |
| 20260510034553 | 60 | 0 | 0.0 | 0.0 | 0.00 | 0.00 | 0.00 | 91 | 1013.2 |
| 20260510033055 | 61 | 0 | 0.0 | 0.0 | 0.00 | 0.00 | 0.00 | 91 | 1013.0 |
| 20260510031613 | 61 | 0 | 0.0 | 0.0 | 0.00 | 0.00 | 0.00 | 89 | 1013.3 |
| 20260510030456 | 62 | 0 | 0.0 | 0.0 | 0.00 | 0.00 | 0.00 | 88 | 1013.2 |
| 20260510023050 | 63 | 0 | 0.0 | 0.0 | 0.00 | 0.00 | 0.00 | 86 | 1013.1 |
| 20260510021546 | 64 | 0 | 0.0 | 0.0 | 0.00 | 0.00 | 0.00 | 85 | 1012.8 |
| 20260510020046 | 65 | 0 | 0.0 | 0.0 | 0.00 | 0.00 | 0.00 | 84 | 1012.6 |
| 20260510014551 | 66 | 0 | 0.0 | 0.0 | 0.00 | 0.00 | 0.00 | 82 | 1012.2 |
| 20260510013049 | 66 | 0 | 0.0 | 0.9 | 0.00 | 0.00 | 0.00 | 81 | 1012.2 |
| 20260510011548 | 66 | 0 | 0.0 | 0.9 | 0.00 | 0.00 | 0.00 | 82 | 1012.0 |
| 20260510010047 | 66 | 0 | 0.0 | 0.0 | 0.00 | 0.00 | 0.00 | 82 | 1011.6 |
| 20260510004552 | 66 | 0 | 0.0 | 0.9 | 0.00 | 0.00 | 0.00 | 81 | 1011.3 |
| 20260510003054 | 67 | 0 | 0.0 | 0.0 | 0.00 | 0.00 | 0.00 | 79 | 1011.0 |
| 20260510001547 | 68 | 0 | 0.0 | 0.0 | 0.00 | 0.00 | 0.00 | 77 | 1010.8 |
| 20260510000051 | 69 | 0 | 0.0 | 1.7 | 0.00 | 0.00 | 0.00 | 75 | 1010.6 |